Погода в Снопе

Россия / Ненецкий автономный округ     66°44′25″N   47°00′52″E
темп.,
°C
ветер,
м/с
пор.,
м/с
влажн.,
%
обл.,
%
осадки,
мм/ч
давл.,
гПа
погр.,
м
24 января, пн
пн2400:00−11ююз91591100 0.3 1014359
03:00−11ююз91691100 0.3 1014379
06:00−10ююз101791100 0.0 1010328
09:00−7ююз121892100 0.1 1008469
12:00−6ююз121991100 0.1 1006510
15:00−4ююз121992100 0.3 1003534
18:00−1ююз131993100 0.2 1002664
21:00−1ююз121893100 0.3 1000810
25 января, вт
вт2500:000юз121993100 0.1 998768
03:00−1юз111994100 0.6 998681
06:00−1зюз91498100 0.6 999581
09:00−3зюз51092100 1.0 1000165
12:00−6з459186 0.0 100158
15:00−7з3397100 0.1 100225
18:00−11зюз338887 0.0 100324
21:00−14зюз45895 0.0 100435
26 января, ср
ср2600:00−15зюз56925 0.0 100552
03:00−15зюз469345 0.0 100563
06:00−14юз5792100 0.0 100667
09:00−15юз58925 0.0 100679
12:00−15юз59925 0.0 100797
15:00−16юз58955 0.0 100781
18:00−16ююз6109874 0.0 1008103
21:00−16ююз6109757 0.0 1007104
27 января, чт
чт2700:00−17ююз6109715 0.0 1007108
03:00−17ююз6119550 0.0 1007117
06:00−17ююз7129415 0.0 1006132
09:00−16ююз71491100 0.0 1006172
12:00−15ююз8149281 0.0 1006216
15:00−15ююз7129665 0.0 1006164
18:00−13ююз71295100 0.1 1007200
21:00−12ююз71194100 0.1 1007192
28 января, пт
пт2800:00−12ю71288100 0.0 1007202
03:00−14ю71287100 0.0 1008172
06:00−15ю61187100 0.0 1008161
09:00−15ю61287100 0.0 1008148
12:00−12ю71286100 0.0 1008219
15:00−12ю61187100 0.0 1009207
18:00−12ю61089100 0.0 1009199
21:00−13ююв5991100 0.0 1009187